Location: Cuzcurrita-R�o Tir�n
(42.5415°N, 2.9642°W)
Time: 01:31:23
(UTC+00:00)

SJ 16-02 - Pass Details

Date: 17 January 2021
Orbit: 606 x 616 km, 75.0° (Epoch: 08 March)

Event Time Altitude Azimuth Distance (km) Brightness Sun altitude
Rises 19:40:20 0° 208° (SSW) 2,866 5.2 -27.9°
Reaches altitude 10° 19:42:36 10° 213° (SSW) 1,964 4.3 -28.3°
Enters shadow 19:45:50 42° 244° (WSW) 871 2.4 -28.9°
